Voltar ao catálogo

MONITOR-4

AtivoRádio AmadorSSO
NORAD 57182·PAYLOAD·🇷🇺 Russia
Este nome de satélite ainda não foi confirmado por fontes oficiais.

Lançado Jun 27, 2023 de Vostochny Cosmodrome

Loading…

Próximas Passagens (próximas 24 horas)

TLE

AtualizadoSource: Space-Track

Época: Sep 14, 2026, 11:01 UTC

1 57182U 23091S   26257.45920958  .00008394  00000-0  29581-3 0  9994
2 57182  97.4985 321.5942 0012221 139.4636 220.7516 15.29472383177937

Acompanhe MONITOR-4 em tempo real com AllMySat

Download on the App Store